Regional Weather Roundup
Issued by NWS Grand Forks, ND

Home | Current Version | Previous Version | Graphics & Text | Print | Product List | Glossary On
Versions: 1 2 3 4 5 6 7 8 9 10 11 12 13 14 15 16 17 18 19 20 21 22 23 24 25 26 27 28 29 30 31 32 33 34 35 36 37 38 39 40 41 42 43 44 45 46 47 48 49 50
000
ASUS43 KFGF 180231
RWRFGF
PRAIRIE TO PINES  WEATHER ROUNDUP
NATIONAL WEATHER SERVICE EASTERN NORTH DAKOTA/GRAND FORKS ND
800 PM CST FRI NOV 17 2017

 **SATELLITE DATA USED TO AUGMENT SKY COVER AT AUTOMATED STATIONS**
 *****  WEATHER ACROSS EASTERN NORTH DAKOTA  *****

CITY           SKY/WX    TMP DP  RH WIND       PRES   REMARKS
GRAND FORKS    FAIR      18  15  88 NW5       29.78R WCI  11
GRAND FRKS AFB FAIR      16  13  88 NW6       29.77R WCI   7
GRAND FRKS NWS   N/A     19 N/A N/A MISG        N/A
DEVILS LAKE    FAIR      14  11  87 NW5       29.75S WCI   6
FARGO          FAIR      25  18  74 N10       29.76R WCI  15
WAHPETON ARPT  NOT AVBL
$$

 ***** WEATHER ACROSS CENTRAL AND WESTERN NORTH DAKOTA  *****

CITY           SKY/WX    TMP DP  RH WIND       PRES   REMARKS
BISMARCK       FAIR      23  21  92 SE3       29.75R
MINOT          FAIR      19  13  77 N3        29.75R
JAMESTOWN      FAIR      21  17  84 N10       29.75R WCI  10
MINOT AFB      FAIR      17  11  79 N6        29.75R WCI   8
GARRISON         N/A     22  17  81 NE3       29.72S
WILLISTON      FAIR      25  17  72 N15       29.75R WCI  13
DICKINSON      LGT RAIN  36  33  89 NW9       29.70R
HETTINGER      FAIR      28  23  81 CALM      29.73R
$$

 *****  OTHER AIRPORT OBSERVATIONS IN OUR AREA  *****

CITY           SKY/WX    TMP DP  RH WIND       PRES   REMARKS
WALHALLA       FAIR      16  16 100 W3        29.79R
GRAFTON AIRPOR FAIR      16  16 100 CALM      29.80S
VALLEY CITY AR FAIR      19  19 100 N6        29.77R WCI  11
CANDO          FAIR      12  12 100 CALM      29.78R
CAVALIER APRT  FAIR      10   7  85 SW3       29.79R
GWINNER          N/A     27  18  69 N8        29.76R WCI  18
SHEYENNE NWR     N/A     27  20  74 N6        29.95S WCI  20
ROLLA          FAIR      10   9  92 W3        29.73R
 ***** THE ABOVE OBSERVATIONS ARE NON NWS ARE NOT QUALITY
       CONTROLLED AND MAY MIS-REPORT RAIN FOR SNOW...
$$

  *****  WEATHER ACROSS NORTHERN MINNESOTA  *****

CITY           SKY/WX    TMP DP  RH WIND       PRES   REMARKS
FLAG ISLAND    FAIR      19  14  79 NW6       29.70S WCI  11
WARROAD        FAIR      19  14  79 NW7       29.73R WCI  10
ROSEAU         FAIR      18  12  79 W6        29.75R WCI   9
HALLOCK        FAIR      12  10  92 CALM      29.77R
THF RVR FALLS  FAIR      19  15  84 NW5       29.76R WCI  12
BAUDETTE       FAIR      21  15  78 W6        29.70S WCI  13
WASKISH        FAIR      23  18  80 NW5       29.71S WCI  17
CROOKSTON      FAIR      19  18  93 NW8       29.79R WCI   9
STEPHEN NDAWN    N/A     16  12  86 NW3         N/A
GREENBUSH NDAW   N/A     16  12  86 W3          N/A
$$
  *****  WEATHER ACROSS CENTRAL AND WEST MINNESOTA  *****

CITY           SKY/WX    TMP DP  RH WIND       PRES   REMARKS
FOSSTON        FAIR      19  16  86 NW7       29.74R WCI  10
BEMIDJI        FAIR      23  18  81 NW7       29.69F WCI  15
PARK RAPIDS    FAIR      31  25  78 N8        29.66S WCI  23
ELBOW LAKE     CLOUDY    29  24  82 NW8       29.72R WCI  21
WADENA         FAIR      30  27  86 NW6       29.68R WCI  24
DETROIT LAKES  FAIR      27  21  80 NW9       29.71S WCI  17
MOORHEAD       FAIR      25  18  74 N14       29.76R WCI  13
FERGUS FALLS   FAIR      28  21  74 N8        29.74R WCI  20
MORRIS MN      CLOUDY    32  27  80 NW9       29.69F WCI  24
STAPLES        FAIR      32  30  93 NW3       29.67S
$$
  *****  WEATHER ELSEWHERE ACROSS MINNESOTA  *****

CITY           SKY/WX    TMP DP  RH WIND       PRES   REMARKS
DULUTH         CLOUDY    32  32 100 N5        29.62F FOG
INTRNTL FALLS  FAIR      25  18  74 NW6       29.68S WCI  18
ELY            CLOUDY    30  30 100 CALM      29.64S FOG
CLOQUET        MOCLDY    32  30  93 NW5       29.63F FOG
WHEATON        FAIR      30  25  80 NW5       29.76R
BRAINERD       FAIR      33  31  92 W3        29.68R FOG
HIBBING        FAIR      30  30 100 NW5       29.64F FOG
ALEXANDRIA     CLOUDY    34  30  85 N7        29.68R
SAINT CLOUD    FAIR      33  33 100 W5        29.66S FOG
MINNEAPOLIS    CLOUDY    38  37  97 N10       29.65S
$$

  *****  WEATHER ACROSS SOUTH DAKOTA  *****

CITY           SKY/WX    TMP DP  RH WIND       PRES   REMARKS
SIOUX FALLS    CLOUDY    41  33  73 NE10      29.66R
BROOKINGS      CLOUDY    34  30  85 N6        29.68R
WATERTOWN      CLOUDY    32  26  78 NE9       29.66F WCI  24
HURON          CLOUDY    37  26  64 N8        29.73R
SISSETON         N/A     31  24  75 N8        29.72S WCI  23
ABERDEEN       CLOUDY    31  20  63 N3        29.76R
MITCHELL       CLOUDY    42  32  67 N9        29.70R
PIERRE         CLOUDY    39  33  79 N7        29.72R
MOBRIDGE       CLOUDY    36  27  69 NE5       29.72R
RAPID CITY     MOCLDY    35  34  96 N7        29.75R FOG
$$

  *****  SOME WEATHER IN NEARBY STATES *****

CITY           SKY/WX    TMP DP  RH WIND       PRES   REMARKS
GLASGOW MT     FAIR      25  21  85 N8        29.76R WCI  16
GREAT FALLS MT FAIR      30  16  56 SW13      29.87R WCI  20
CHEYENNE WY    FAIR      36  26  67 NW18G28   29.73R
SCOTTSBLUFF NE FAIR      45  35  68 NW14      29.71R
OMAHA NE       MOCLDY    48  40  73 N9        29.55S
DES MOINES IA  DRZL/FOG  50  49  96 N6        29.56R VSB 1/4
DAVENPORT IA   CLOUDY    45  44  97 S5        29.60F FOG
CHICAGO IL     LGT RAIN  44  41  89 S13       29.60F FOG
EAU CLAIRE WI  CLOUDY    36  35  96 N3        29.62F FOG
LA CROSSE WI   LGT RAIN  39  38  96 CALM      29.61S FOG
$$

  *****  SOME NATIONAL WEATHER *****

CITY           SKY/WX    TMP DP  RH WIND       PRES   REMARKS
LA GUARDIA NY  FAIR      43  19  38 NW14      30.07S
RALEIGH NC     FAIR      39  34  82 CALM      30.16R
ATLANTA GA     FAIR      54  44  69 SE5       30.09S
NEW ORLEANS LA FAIR      68  65  90 SE6       30.02S
OKLAHOMA CITY  MOCLDY    74  57  55 S21       29.59S
ALBUQUERQUE NM MOCLDY    58  40  51 SW18G30   29.99R
SALT LAKE CITY FAIR      39  27  62 NW17G29   30.15R
LOS ANGELES CA FAIR      64  61  90 SW10      30.04R
BOISE ID       FAIR      39  23  52 MISG      30.22R
SEATTLE WA     FAIR      44  39  82 S12       30.23R
$$

*** WEATHER ACROSS MANITOBA...SASKATCHEWAN AND ONTARIO ***
                ***ONTARIO***

CITY           SKY/WX    TMP DP  RH WIND       PRES   REMARKS
GERALDTON      DRIZZLE   32  32 100 W6        29.60S
THUNDER BAY    CLOUDY    32  32 100 W2        29.64R
SIOUX LOOKOUT  CLOUDY    27  21  80 NW6       29.65R WCI  20
TORONTO        MOCLDY    36  28  75 SE9       29.96F
BIG TROUT LK   FLURRIES  19  14  79 W12G20    29.57R WCI   7
PICKLE LAKE    CLOUDY    21  18  86 NW10G17   29.60R WCI  10
DRYDEN         CLEAR     21  19  93 W6        29.66R WCI  14
KENORA         PTCLDY    19  14  79 W3        29.68R
$$
                *** MANITOBA***

CITY           SKY/WX    TMP DP  RH WIND       PRES   REMARKS
BRANDON        CLEAR      3  -2  78 NW10      29.76R WCI -12
DAUPHIN        MOCLDY    16   9  73 W8        29.77R WCI   5
ISLAND LAKE    CLOUDY    14   9  79 W15G25    29.64  WCI  -1
PILOT MOUND      N/A     12   9  85 W5          N/A  WCI   4
THE PAS        CLOUDY    12   3  67 W14       29.70R WCI  -3
THOMPSON       FLURRIES  10   7  85 W9        29.54S WCI  -2
WINNIPEG       CLEAR     12   9  85 W7        29.76S WCI   2
LYNN LAKE      FLURRIES   5   1  85 W12G17    29.52R WCI -11
CHURCHILL      LGT SNOW   7   3  85 W17       29.38R DRFTSNOWWCI -12
GILLAM         FLURRIES  10   3  72 W15       29.50  WCI  -6
$$
                ***SASKATCHEWAN***

CITY           SKY/WX    TMP DP  RH WIND       PRES   REMARKS
ESTEVAN        PTCLDY     7   1  78 NW7       29.79R WCI  -5
KINDERSLEY     MOCLDY     9   7  92 NW5       29.86R WCI   0
LLOYDMINSTER   CLEAR      0  -4  85 W10       29.83R WCI -17
PRINCE ALBERT  PTCLDY     5   0  78 NW10      29.82R WCI -10
REGINA         FLURRIES  12   9  85 W9        29.82R WCI   0
YORKTON        MOCLDY     9   3  78 W7        29.76R WCI  -3
N. BATTLEFORD  CLEAR      3  -4  72 W9        29.87R WCI -11
LA RONGE       FLURRIES  10   3  72 W14G20    29.74R WCI  -5
SASKATOON      MOCLDY     5  -2  72 W15       29.86R WCI -13
SWIFT CURRENT  LGT SNOW   9   5  85 W9        29.81R WCI  -5
$$
NOTE: THESE ARE AUTOMATED STATIONS WITH LIMITED QUALITY CONTROL
      "FAIR" INDICATES FEW OR NO CLOUDS BELOW 12,000 FEET WITH NO
      SIGNIFICANT WEATHER AND/OR OBSTRUCTIONS TO VISIBILITY.
      SKY/WX - SKY CONDITION AND SIGNIFICANT WEATHER.
      TMP - AIR TEMPERATURE.    DP   - DEWPOINT TEMPERATURE.
      RH  - RELATIVE HUMIDITY.  PRES - PRESSURE.
      HX  - HEAT INDEX.         WCI  - WIND CHILL INDEX.
$




USA.gov is the U.S. government's official web portal to all federal, state and local government web resources and services.